• In Portugal
  • List of Countries
  • For 7 days
  • Water Temperature
  • Satellite Maps
  • Weather Map
  • Weather Widgets
  • user-avatar
    Login

    Hourly Weather Kanye

    Today, 26 May, Saturday

    Time Temperature Precipitation Wind Pressure Humidity
    00:00 +15°C° 0 mm 1 mps 652 mmHg 27%
    01:00 +14°C° 0 mm 1 mps 652 mmHg 28%
    02:00 +14°C° 0 mm 1 mps 652 mmHg 30%
    03:00 +14°C° 0 mm 1 mps 652 mmHg 30%
    04:00 +13°C° 0 mm 1 mps 652 mmHg 31%
    05:00 +13°C° 0 mm 1 mps 652 mmHg 31%
    06:00 +14°C° 0 mm 1 mps 652 mmHg 31%
    07:00 +15°C° 0 mm 1 mps 653 mmHg 30%
    08:00 +18°C° 0 mm 1 mps 654 mmHg 28%
    09:00 +20°C° 0 mm 1 mps 655 mmHg 26%
    10:00 +21°C° 0 mm 2 mps 655 mmHg 24%
    11:00 +25°C° 0 mm 2 mps 656 mmHg 22%
    12:00 +25°C° 0 mm 2 mps 655 mmHg 20%
    13:00 +26°C° 0 mm 2 mps 655 mmHg 18%
    14:00 +27°C° 0 mm 2 mps 655 mmHg 16%
    15:00 +26°C° 0 mm 2 mps 654 mmHg 17%
    16:00 +26°C° 0 mm 2 mps 654 mmHg 18%
    17:00 +25°C° 0 mm 2 mps 654 mmHg 18%
    18:00 +23°C° 0 mm 2 mps 653 mmHg 20%
    19:00 +20°C° 0 mm 2 mps 653 mmHg 21%
    20:00 +17°C° 0 mm 2 mps 653 mmHg 22%
    21:00 +18°C° 0 mm 1 mps 653 mmHg 23%
    22:00 +16°C° 0 mm 1 mps 653 mmHg 23%
    23:00 +15°C° 0 mm 1 mps 653 mmHg 23%

    Tomorrow, 27 May, Sunday

    Time Temperature Precipitation Wind Pressure Humidity
    00:00 +15°C° 0 mm 1 mps 653 mmHg 24%
    01:00 +15°C° 0 mm 1 mps 653 mmHg 24%
    02:00 +14°C° 0 mm 1 mps 653 mmHg 25%
    03:00 +14°C° 0 mm 1 mps 653 mmHg 26%
    04:00 +13°C° 0 mm 1 mps 653 mmHg 26%
    05:00 +13°C° 0 mm 1 mps 653 mmHg 27%
    06:00 +14°C° 0 mm 1 mps 654 mmHg 27%
    07:00 +15°C° 0 mm 1 mps 654 mmHg 28%
    08:00 +16°C° 0 mm 2 mps 655 mmHg 28%
    09:00 +19°C° 0 mm 3 mps 656 mmHg 27%
    10:00 +21°C° 0 mm 3 mps 656 mmHg 27%
    11:00 +25°C° 0 mm 4 mps 657 mmHg 26%
    12:00 +26°C° 0 mm 4 mps 657 mmHg 23%
    13:00 +26°C° 0 mm 3 mps 656 mmHg 20%
    14:00 +27°C° 0 mm 3 mps 656 mmHg 18%
    15:00 +26°C° 0 mm 2 mps 656 mmHg 19%
    16:00 +26°C° 0 mm 2 mps 655 mmHg 20%
    17:00 +25°C° 0 mm 1 mps 655 mmHg 21%
    18:00 +23°C° 0 mm 1 mps 655 mmHg 24%
    19:00 +21°C° 0 mm 1 mps 654 mmHg 27%
    20:00 +18°C° 0 mm 1 mps 654 mmHg 29%
    21:00 +18°C° 0 mm 1 mps 654 mmHg 31%
    22:00 +17°C° 0 mm 2 mps 655 mmHg 32%
    23:00 +16°C° 0 mm 2 mps 655 mmHg 34%

    Day after tomorrow, 28 May, Monday

    Time Temperature Precipitation Wind Pressure Humidity
    00:00 +16°C° 0 mm 2 mps 655 mmHg 36%
    01:00 +16°C° 0 mm 2 mps 655 mmHg 38%
    02:00 +16°C° 0 mm 3 mps 654 mmHg 40%
    03:00 +14°C° 0 mm 3 mps 654 mmHg 43%
    04:00 +14°C° 0 mm 3 mps 654 mmHg 46%
    05:00 +13°C° 0 mm 3 mps 654 mmHg 49%
    06:00 +14°C° 0 mm 3 mps 655 mmHg 49%
    07:00 +14°C° 0 mm 3 mps 655 mmHg 48%
    08:00 +16°C° 0 mm 3 mps 656 mmHg 48%
    09:00 +18°C° 0 mm 4 mps 656 mmHg 42%
    10:00 +21°C° 0 mm 5 mps 657 mmHg 36%
    11:00 +25°C° 0 mm 5 mps 658 mmHg 29%
    12:00 +25°C° 0 mm 5 mps 657 mmHg 27%
    13:00 +26°C° 0 mm 5 mps 657 mmHg 24%
    14:00 +27°C° 0 mm 5 mps 656 mmHg 22%
    15:00 +27°C° 0 mm 4 mps 656 mmHg 23%
    16:00 +26°C° 0 mm 3 mps 655 mmHg 24%
    17:00 +25°C° 0 mm 3 mps 655 mmHg 25%
    18:00 +23°C° 0 mm 2 mps 654 mmHg 28%
    19:00 +20°C° 0 mm 2 mps 654 mmHg 32%
    20:00 +19°C° 0 mm 1 mps 654 mmHg 35%
    21:00 +18°C° 0 mm 2 mps 654 mmHg 35%
    22:00 +18°C° 0 mm 2 mps 654 mmHg 35%
    23:00 +18°C° 0 mm 2 mps 654 mmHg 35%

    29 May, Tuesday

    Time Temperature Precipitation Wind Pressure Humidity
    00:00 +18°C° 0 mm 2 mps 653 mmHg 36%
    01:00 +17°C° 0 mm 3 mps 653 mmHg 37%
    02:00 +17°C° 0 mm 3 mps 652 mmHg 38%
    03:00 +16°C° 0 mm 3 mps 652 mmHg 39%
    04:00 +16°C° 0 mm 3 mps 652 mmHg 39%
    05:00 +14°C° 0 mm 4 mps 652 mmHg 40%
    06:00 +14°C° 0 mm 3 mps 652 mmHg 41%
    07:00 +16°C° 0 mm 3 mps 652 mmHg 41%
    08:00 +16°C° 0 mm 3 mps 653 mmHg 41%
    09:00 +18°C° 0 mm 4 mps 653 mmHg 38%
    10:00 +20°C° 0 mm 4 mps 654 mmHg 35%
    11:00 +22°C° 0 mm 5 mps 654 mmHg 32%
    12:00 +23°C° 0 mm 6 mps 654 mmHg 29%
    13:00 +24°C° 0 mm 6 mps 654 mmHg 26%
    14:00 +26°C° 0 mm 6 mps 653 mmHg 23%
    15:00 +24°C° 0 mm 6 mps 653 mmHg 22%
    16:00 +25°C° 0 mm 5 mps 653 mmHg 21%
    17:00 +23°C° 0 mm 4 mps 652 mmHg 20%
    18:00 +21°C° 0 mm 4 mps 652 mmHg 20%
    19:00 +19°C° 0 mm 3 mps 652 mmHg 21%
    20:00 +16°C° 0 mm 3 mps 652 mmHg 21%
    21:00 +14°C° 0 mm 3 mps 652 mmHg 22%
    22:00 +14°C° 0 mm 3 mps 652 mmHg 22%
    23:00 +13°C° 0 mm 3 mps 652 mmHg 23%

    30 May, Wednesday

    Time Temperature Precipitation Wind Pressure Humidity
    00:00 +13°C° 0 mm 2 mps 652 mmHg 24%
    01:00 +12°C° 0 mm 2 mps 652 mmHg 25%
    02:00 +10°C° 0 mm 2 mps 651 mmHg 27%
    03:00 +10°C° 0 mm 2 mps 651 mmHg 27%
    04:00 +10°C° 0 mm 2 mps 651 mmHg 28%
    05:00 +10°C° 0 mm 2 mps 651 mmHg 28%
    06:00 +12°C° 0 mm 2 mps 651 mmHg 27%
    07:00 +12°C° 0 mm 2 mps 652 mmHg 26%
    08:00 +13°C° 0 mm 2 mps 652 mmHg 26%
    09:00 +16°C° 0 mm 2 mps 653 mmHg 23%
    10:00 +20°C° 0 mm 3 mps 653 mmHg 19%
    11:00 +24°C° 0 mm 3 mps 654 mmHg 16%
    12:00 +25°C° 0 mm 4 mps 653 mmHg 17%
    13:00 +26°C° 0 mm 4 mps 653 mmHg 17%
    14:00 +27°C° 0 mm 5 mps 652 mmHg 18%
    15:00 +27°C° 0 mm 4 mps 652 mmHg 19%
    16:00 +26°C° 0 mm 4 mps 651 mmHg 21%
    17:00 +26°C° 0 mm 3 mps 651 mmHg 23%
    18:00 +24°C° 0 mm 3 mps 651 mmHg 26%
    19:00 +22°C° 0 mm 3 mps 651 mmHg 28%
    20:00 +20°C° 0 mm 3 mps 651 mmHg 31%
    21:00 +20°C° 0 mm 3 mps 651 mmHg 31%
    22:00 +20°C° 0 mm 3 mps 651 mmHg 32%
    23:00 +20°C° 0 mm 4 mps 650 mmHg 32%

    31 May, Thursday

    Time Temperature Precipitation Wind Pressure Humidity
    00:00 +20°C° 0 mm 5 mps 650 mmHg 33%
    01:00 +20°C° 0 mm 6 mps 650 mmHg 34%
    02:00 +21°C° 0 mm 7 mps 650 mmHg 34%
    03:00 +20°C° 0 mm 7 mps 650 mmHg 34%
    04:00 +20°C° 0 mm 6 mps 650 mmHg 35%
    05:00 +20°C° 0 mm 5 mps 650 mmHg 35%
    06:00 +19°C° 0.1 mm 5 mps 651 mmHg 34%
    07:00 +17°C° 0.1 mm 5 mps 651 mmHg 33%
    08:00 +16°C° 0.1 mm 5 mps 651 mmHg 32%
    09:00 +16°C° 0 mm 5 mps 652 mmHg 31%
    10:00 +16°C° 0 mm 5 mps 652 mmHg 30%
    11:00 +15°C° 0 mm 5 mps 653 mmHg 29%
    12:00 +17°C° 0 mm 5 mps 653 mmHg 24%
    13:00 +20°C° 0 mm 5 mps 652 mmHg 19%
    14:00 +21°C° 0 mm 5 mps 652 mmHg 14%
    15:00 +21°C° 0 mm 5 mps 652 mmHg 14%
    16:00 +20°C° 0 mm 5 mps 652 mmHg 15%
    17:00 +19°C° 0 mm 4 mps 652 mmHg 16%
    18:00 +17°C° 0 mm 4 mps 652 mmHg 19%
    19:00 +14°C° 0 mm 3 mps 652 mmHg 22%
    20:00 +11°C° 0 mm 3 mps 652 mmHg 25%
    21:00 +12°C° 0 mm 2 mps 652 mmHg 28%
    22:00 +10°C° 0 mm 2 mps 652 mmHg 30%
    23:00 +9°C° 0 mm 2 mps 652 mmHg 32%
    Show more